FW0518 Weather Reports


time (UTC)temp
F
wind
direction
speed
knots
gust
knots
rain 1hr
in
rain 24hr
in
rain mn
in
humidity
%
barometer
mb
20260505111523 47 15 0.0 3.5 0.02 0.21 0.21 84 1009.2
20260505101514 50 59 0.9 6.1 0.00 0.19 0.19 74 1008.1
20260505100016 51 30 2.6 7.8 0.00 0.19 0.19 68 1007.7
20260505094508 51 26 2.6 7.8 0.00 0.19 0.19 70 1007.9
20260505093011 51 359 2.6 7.0 0.00 0.19 0.19 73 1008.2
20260505091504 50 62 2.6 7.0 0.00 0.19 0.19 74 1008.3
20260505090002 50 69 1.7 6.1 0.00 0.19 0.19 77 1008.0
20260505084500 50 350 1.7 5.2 0.00 0.19 0.19 78 1007.5
20260505083104 50 14 2.6 7.0 0.00 0.19 0.19 78 1007.0
20260505081602 49 3 3.5 6.1 0.00 0.19 0.19 82 1006.7
20260505080056 49 360 1.7 7.0 0.02 0.19 0.19 85 1006.5
20260505074553 49 11 2.6 7.0 0.07 0.19 0.19 87 1005.9
20260505073053 49 30 3.5 8.7 0.12 0.19 0.19 89 1005.8
20260505071547 49 22 4.3 9.6 0.14 0.19 0.19 89 1004.9
20260505070045 50 40 2.6 7.0 0.12 0.17 0.17 86 1006.9
20260505064540 52 356 1.7 7.8 0.08 0.12 0.12 80 1007.9
20260505063039 54 46 1.7 9.6 0.03 0.07 0.07 78 1007.6
20260505061539 57 301 2.6 12.2 0.03 0.05 0.05 70 1006.8
20260505060033 57 358 3.5 8.7 0.03 0.04 0.04 71 1005.6
20260505054534 57 2 1.7 7.0 0.04 0.04 0.04 78 1004.8
20260505053021 58 300 1.7 6.1 0.04 0.04 0.04 77 1004.6
20260505051516 61 1 3.5 8.7 0.02 0.02 0.02 68 1004.2
20260505041510 70 279 2.6 9.6 0.00 0.00 0.00 58 1003.0
20260505040009 69 259 1.7 5.2 0.00 0.00 0.00 73 1002.8
20260505034509 70 172 0.9 4.3 0.00 0.00 0.00 73 1002.4
20260505033016 70 172 1.7 4.3 0.00 0.00 0.00 73 1002.3
20260505031507 70 183 0.9 2.6 0.00 0.00 0.00 73 1002.3
20260505030007 70 185 0.9 3.5 0.00 0.00 0.00 72 1002.2
20260505024506 71 185 1.7 4.3 0.00 0.00 0.00 71 1001.9
20260505023006 71 193 1.7 4.3 0.00 0.00 0.00 69 1001.7
20260505021506 72 208 2.6 6.1 0.00 0.00 0.00 68 1001.5
20260505020005 72 169 3.5 6.1 0.00 0.00 0.00 69 1001.4
20260505014509 72 179 1.7 5.2 0.00 0.00 0.00 67 1001.2
20260505013003 74 179 0.0 3.5 0.00 0.00 0.00 63 1001.2
20260505011504 74 134 0.9 1.7 0.00 0.00 0.00 60 1000.9
20260505010002 75 22 0.9 2.6 0.00 0.00 0.00 60 1000.7
20260505004505 75 311 0.0 0.9 0.00 0.00 0.00 59 1000.6
20260505003002 76 232 0.0 0.9 0.00 0.00 0.00 57 1000.5
20260505001501 77 231 0.0 0.0 0.00 0.00 0.00 54 1000.5
20260505000104 78 229 0.0 0.9 0.00 0.00 0.00 57 1000.6
20260504234627 78 232 0.0 1.7 0.00 0.00 0.00 56 1000.6
20260504233059 78 229 0.9 2.6 0.00 0.00 0.00 54 1000.6
20260504231605 78 232 0.9 3.5 0.00 0.00 0.00 52 1000.7
20260504230057 79 216 1.7 5.2 0.00 0.00 0.00 51 1000.7
20260504224605 79 196 0.9 2.6 0.00 0.00 0.00 53 1000.7
20260504223056 79 194 2.6 6.1 0.00 0.00 0.00 51 1000.7
20260504221603 79 200 3.5 9.6 0.00 0.00 0.00 53 1000.6
20260504220055 80 205 4.3 8.7 0.00 0.00 0.00 50 1000.7
20260504214554 81 243 4.3 8.7 0.00 0.00 0.00 43 1000.8
20260504213101 81 231 3.5 8.7 0.00 0.00 0.00 48 1000.8
20260504211548 81 167 4.3 9.6 0.00 0.00 0.00 48 1001.0
20260504210054 80 240 3.5 8.7 0.00 0.00 0.00 50 1001.3
20260504204619 80 245 3.5 9.6 0.00 0.00 0.00 48 1001.4
20260504203042 80 250 3.5 7.0 0.00 0.00 0.00 49 1001.4
20260504201540 80 211 4.3 9.6 0.00 0.00 0.00 42 1001.5
20260504200041 80 245 5.2 10.4 0.00 0.00 0.00 45 1001.7
20260504194547 80 194 5.2 12.2 0.00 0.00 0.00 45 1001.8
20260504193039 80 201 6.1 11.3 0.00 0.00 0.00 46 1001.8
20260504191536 80 238 7.0 12.2 0.00 0.00 0.00 47 1001.8
20260504190037 80 204 6.1 9.6 0.00 0.00 0.00 44 1001.9
20260504184530 79 223 5.2 9.6 0.00 0.00 0.00 47 1001.9
20260504183029 79 259 4.3 9.6 0.00 0.00 0.00 50 1002.0
20260504181526 78 256 7.0 14.8 0.00 0.00 0.00 51 1002.1
20260504180024 77 210 4.3 12.2 0.00 0.00 0.00 54 1002.3
20260504174523 77 172 4.3 11.3 0.00 0.00 0.00 50 1002.3
20260504173022 76 246 7.0 13.9 0.00 0.00 0.00 51 1002.5
20260504171534 75 206 6.1 13.9 0.00 0.00 0.00 53 1002.6
20260504150105 70 236 8.7 17.4 0.00 0.00 0.00 58 1002.9